Weather History for KODX - March, 2012

Change the Weather History Date:

Sunday, March 25, 2012

  Actual Average Record
Temperature  
Mean Temperature 57 °F 41 °F  
Max Temperature 72 °F 55 °F 77 °F (2004)
Min Temperature 42 °F 28 °F 1 °F (2006)
Degree Days  
Heating Degree Days 8 24  
Month to date heating degree days 405 712  
Since 1 July heating degree days 5190 5729  
Cooling Degree Days 0 0  
Month to date cooling degree days 11 0  
Year to date cooling degree days 11 0  
Growing Degree Days 6 (Base 50)    
Moisture  
Dew Point 46 °F    
Average Humidity 75    
Maximum Humidity 100    
Minimum Humidity 49    
Precipitation  
Precipitation 0.00 in 0.08 in 1.50 in (2007)
Month to date precipitation 0.67 0.89  
Year to date precipitation 2.10 1.70  
Sea Level Pressure  
Sea Level Pressure 30.07 in    
Wind  
Wind Speed 5 mph (NE)    
Max Wind Speed 15 mph    
Max Gust Speed 18 mph    
Visibility 6 miles    
Events Fog    
T = Trace of Precipitation, MM = Missing Value Source: NWS Daily Summary

Daily Weather History Graph

Daily Weather History Graph

Search for Another Location

Airport or City:

Trip Planner

Search our weather history database for the weather conditions in past years. The results will help you decide how hot, cold, wet, or windy it might be!

Date:

Astronomy

Mar. 25, 2012 Rise Set
Actual Time 7:29 AM CDT 7:54 PM CDT
Civil Twilight 7:01 AM CDT 8:21 PM CDT
Nautical Twilight 6:29 AM CDT 8:54 PM CDT
Astronomical Twilight 5:55 AM CDT 9:28 PM CDT
Moon 8:40 AM CDT (3/25) 11:14 PM CDT (3/25)
Length of Visible Light 13h 19m
Length of Day
12h 24m
Waxing Crescent, 9% of the Moon is Illuminated
Mar 25
Waxing Crescent
Mar 30
First Quarter
Apr 6
Full
Apr 13
Last Quarter
Apr 21
New

Hourly Weather History & Observations

Time (CDT) Temp. Windchill Dew Point Humidity Pressure Visibility Wind Dir Wind Speed Gust Speed Precip Events Conditions
12:53 AM 46.9 °F - 43.0 °F 86% 30.09 in 8.0 mi NNW 5.8 mph - N/A   Clear
1:53 AM 45.0 °F 41.2 °F 42.1 °F 90% 30.10 in 7.0 mi NW 6.9 mph - N/A   Clear
2:53 AM 45.0 °F 41.2 °F 42.1 °F 90% 30.10 in 7.0 mi NNW 6.9 mph - N/A   Clear
3:53 AM 42.1 °F 38.4 °F 41.0 °F 96% 30.10 in 7.0 mi NW 5.8 mph - N/A   Clear
4:35 AM 42.8 °F 38.6 °F 42.8 °F 100% 30.09 in 8.0 mi NNW 6.9 mph - N/A   Scattered Clouds
4:43 AM 44.6 °F 40.2 °F 42.8 °F 93% 30.09 in 8.0 mi North 8.1 mph - N/A   Mostly Cloudy
4:53 AM 45.0 °F 41.2 °F 43.0 °F 93% 30.09 in 7.0 mi North 6.9 mph - N/A   Mostly Cloudy
5:17 AM 44.6 °F 40.7 °F 44.6 °F 100% 30.09 in 1.8 mi North 6.9 mph - N/A   Overcast
5:31 AM 44.6 °F 40.7 °F 44.6 °F 100% 30.09 in 1.0 mi North 6.9 mph - N/A   Overcast
5:41 AM 44.6 °F 40.2 °F 44.6 °F 100% 30.09 in 0.8 mi North 8.1 mph - N/A   Overcast
5:53 AM 45.0 °F 41.2 °F 45.0 °F 100% 30.10 in 0.8 mi North 6.9 mph - N/A   Mist
6:53 AM 45.0 °F 41.8 °F 45.0 °F 100% 30.11 in 0.5 mi NNE 5.8 mph - N/A Fog Fog
7:53 AM 45.0 °F 41.2 °F 44.1 °F 97% 30.12 in 0.2 mi NE 6.9 mph - N/A Fog Fog
8:53 AM 45.0 °F 42.6 °F 45.0 °F 100% 30.14 in 0.5 mi North 4.6 mph - N/A Fog Fog
9:14 AM 44.6 °F 41.4 °F 44.6 °F 100% 30.11 in 1.2 mi ENE 5.8 mph - N/A   Overcast
9:49 AM 44.6 °F - 44.6 °F 100% 30.11 in 1.0 mi Calm Calm - N/A   Overcast
9:53 AM 45.0 °F 43.5 °F 45.0 °F 100% 30.13 in 1.2 mi Variable 3.5 mph - N/A   Overcast
10:28 AM 46.4 °F 45.2 °F 44.6 °F 93% 30.11 in 2.5 mi ENE 3.5 mph - N/A   Overcast
10:39 AM 46.4 °F - 44.6 °F 93% 30.11 in 3.0 mi Calm Calm - N/A   Overcast
10:53 AM 46.9 °F - 46.0 °F 97% 30.12 in 4.0 mi Calm Calm - N/A   Overcast
11:34 AM 48.2 °F - 46.4 °F 93% 30.10 in 7.0 mi ESE 4.6 mph - N/A   Overcast
11:53 AM 51.1 °F - 46.9 °F 86% 30.12 in 8.0 mi ESE 4.6 mph - N/A   Overcast
12:38 PM 53.6 °F - 48.2 °F 82% 30.09 in 10.0 mi Calm Calm - N/A   Mostly Cloudy
12:53 PM 55.0 °F - 48.0 °F 77% 30.10 in 10.0 mi Calm Calm - N/A   Mostly Cloudy
1:05 PM 57.2 °F - 48.2 °F 72% 30.08 in 10.0 mi Calm Calm - N/A   Mostly Cloudy
1:22 PM 57.2 °F - 48.2 °F 72% 30.07 in 10.0 mi Calm Calm - N/A   Scattered Clouds
1:53 PM 61.0 °F - 50.0 °F 67% 30.06 in 10.0 mi Calm Calm - N/A   Clear
2:53 PM 66.0 °F - 52.0 °F 60% 30.02 in 10.0 mi SE 8.1 mph - N/A   Clear
3:53 PM 69.1 °F - 52.0 °F 54% 29.99 in 10.0 mi SSE 6.9 mph - N/A   Clear
4:53 PM 70.0 °F - 52.0 °F 53% 29.98 in 10.0 mi ESE 3.5 mph - N/A   Mostly Cloudy
5:53 PM 71.1 °F - 52.0 °F 51% 29.96 in 10.0 mi SE 5.8 mph - N/A   Overcast
6:53 PM 70.0 °F - 52.0 °F 53% 29.95 in 10.0 mi East 8.1 mph - N/A   Overcast
7:53 PM 62.1 °F - 50.0 °F 65% 29.97 in 10.0 mi East 6.9 mph - N/A   Mostly Cloudy
8:53 PM 60.1 °F - 48.9 °F 67% 30.00 in 10.0 mi ENE 4.6 mph - N/A   Scattered Clouds
9:53 PM 60.1 °F - 48.9 °F 67% 30.00 in 10.0 mi East 6.9 mph - N/A   Overcast
10:53 PM 57.0 °F - 48.0 °F 72% 30.00 in 10.0 mi East 4.6 mph - N/A   Clear
11:53 PM 57.0 °F - 48.0 °F 72% 29.99 in 10.0 mi ESE 5.8 mph - N/A   Scattered Clouds